Weather History for KVLD

Nearest airport to NA, NA.

See history from more local stations
Change the Weather History Date:

Thursday, March 28, 2013

  Actual Average Record
Temperature  
Mean Temperature 53 °F 62 °F  
Max Temperature 69 °F 75 °F 87 °F (2007)
Min Temperature 36 °F 49 °F 36 °F (2013)
Degree Days  
Heating Degree Days 12 4  
Month to date heating degree days 264 174  
Since 1 July heating degree days 1133 1554  
Cooling Degree Days 0 1  
Month to date cooling degree days 21 28  
Year to date cooling degree days 98 38  
Growing Degree Days 2 (Base 50)    
Moisture  
Dew Point 31 °F    
Average Humidity 55    
Maximum Humidity 89    
Minimum Humidity 20    
Precipitation  
Precipitation 0.00 in 0.15 in 0.86 in (1950)
Month to date precipitation 2.29 4.41  
Year to date precipitation 8.44 13.14  
Sea Level Pressure  
Sea Level Pressure 30.32 in    
Wind  
Wind Speed 3 mph (North)    
Max Wind Speed 17 mph    
Max Gust Speed 21 mph    
Visibility 8 miles    
Events      
T = Trace of Precipitation, MM = Missing Value Source: NWS Daily Summary

Daily Weather History Graph

Daily Weather History Graph

Search for Another Location

Airport or City:

Trip Planner

Search our weather history database for the weather conditions in past years. The results will help you decide how hot, cold, wet, or windy it might be!

Date:

Astronomy

Mar. 28, 2013 Rise Set
Actual Time 7:26 AM EDT 7:49 PM EDT
Civil Twilight 7:02 AM EDT 8:14 PM EDT
Nautical Twilight 6:34 AM EDT 8:42 PM EDT
Astronomical Twilight 6:05 AM EDT 9:11 PM EDT
Moon 9:30 PM EDT (3/28) 8:01 AM EDT (3/28)
Length of Visible Light 13h 11m
Length of Day
12h 23m
Full, 98% of the Moon is Illuminated
Mar 28
Full
Apr 3
Last Quarter
Apr 10
New
Apr 18
First Quarter
Apr 25
Full

Hourly Weather History & Observations

Time (EDT) Temp. Dew Point Humidity Pressure Visibility Wind Dir Wind Speed Gust Speed Precip Events Conditions
12:53 AM 39.0 °F 34.0 °F 82% 30.31 in 7.0 mi Calm Calm - N/A   Clear
1:53 AM 39.0 °F 34.0 °F 82% 30.31 in 7.0 mi Calm Calm - N/A   Clear
2:53 AM 37.0 °F 33.1 °F 86% 30.31 in 5.0 mi Calm Calm - N/A   Clear
3:53 AM 37.0 °F 33.1 °F 86% 30.30 in 6.0 mi Calm Calm - N/A   Clear
4:53 AM 36.0 °F 32.0 °F 86% 30.30 in 5.0 mi Calm Calm - N/A   Clear
5:53 AM 36.0 °F 32.0 °F 86% 30.31 in 5.0 mi Calm Calm - N/A   Clear
6:53 AM 36.0 °F 32.0 °F 86% 30.33 in 5.0 mi Calm Calm - N/A   Clear
7:53 AM 37.0 °F 33.1 °F 86% 30.35 in 5.0 mi Calm Calm - 0.01 in   Clear
8:53 AM 48.0 °F 37.0 °F 66% 30.36 in 10.0 mi Calm Calm - N/A   Clear
9:53 AM 53.1 °F 30.0 °F 41% 30.38 in 10.0 mi North 6.9 mph - N/A   Clear
10:53 AM 57.9 °F 26.1 °F 30% 30.38 in 10.0 mi North 12.7 mph 19.6 mph N/A   Clear
11:53 AM 61.0 °F 26.1 °F 26% 30.37 in 10.0 mi Variable 6.9 mph - N/A   Clear
12:53 PM 64.9 °F 25.0 °F 22% 30.36 in 10.0 mi NNW 9.2 mph 17.3 mph N/A   Clear
1:53 PM 66.9 °F 24.1 °F 20% 30.34 in 10.0 mi Variable 5.8 mph - N/A   Clear
2:53 PM 66.9 °F 26.1 °F 21% 30.31 in 10.0 mi North 9.2 mph 17.3 mph N/A   Clear
3:53 PM 68.0 °F 26.1 °F 21% 30.28 in 10.0 mi North 8.1 mph - 0.01 in   Clear
4:53 PM 69.1 °F 28.0 °F 22% 30.27 in 10.0 mi North 9.2 mph - N/A   Clear
5:53 PM 68.0 °F 27.0 °F 21% 30.26 in 10.0 mi NNE 6.9 mph - N/A   Clear
6:53 PM 64.9 °F 28.9 °F 26% 30.27 in 10.0 mi North 4.6 mph - N/A   Clear
7:53 PM 59.0 °F 30.9 °F 35% 30.29 in 10.0 mi Calm Calm - N/A   Clear
8:53 PM 52.0 °F 35.1 °F 53% 30.30 in 10.0 mi Calm Calm - N/A   Clear
9:53 PM 48.9 °F 36.0 °F 61% 30.32 in 10.0 mi Calm Calm - N/A   Clear
10:53 PM 46.0 °F 35.1 °F 66% 30.33 in 10.0 mi Calm Calm - N/A   Clear
11:53 PM 45.0 °F 36.0 °F 71% 30.33 in 10.0 mi Calm Calm - N/A   Clear